Temp
-9 -9 -9 -9 -9 -9 -9 -8 -8 -8 -8 -7 -7 -7 -8 -8 -8 -8 -9 -10 -10 -11 -11 -11 -11 -12 -12 -12 -11 -11 -11 -11 -11 -10 -11 -10 -10 -10 -10 -10 -9 -9 -9 -9 -9 -9 -9 -9 -9
-9 -9 -9 -9 -9 -9 -9 -8 -8 -8 -8 -7 -7 -8 -8 -8 -8 -9 -9 -10 -10 -11 -11 -11 -12 -12 -12 -11 -11 -11 -11 -11 -11 -11 -10 -10 -10 -10 -10 -10 -9 -9 -9 -9 -9 -9 -9 -9 -9
-9 -9 -9 -9 -9 -9 -9 -9 -8 -8 -8 -8 -8 -8 -8 -8 -8 -9 -9 -10 -10 -10 -11 -11 -11 -12 -12 -12 -12 -11 -11 -11 -11 -11 -10 -10 -10 -10 -10 -9 -9 -9 -9 -9 -9 -10 -9 -9 -9
-9 -9 -9 -9 -9 -9 -9 -9 -9 -8 -8 -8 -8 -8 -9 -8 -8 -9 -9 -9 -9 -11 -10 -10 -11 -11 -11 -11 -11 -11 -11 -11 -11 -11 -10 -10 -10 -10 -9 -9 -9 -9 -9 -9 -10 -9 -9 -9 -9
-10 -10 -9 -9 -9 -9 -9 -9 -9 -8 -8 -8 -8 -8 -8 -8 -8 -8 -9 -9 -9 -10 -9 -10 -10 -11 -11 -11 -10 -10 -11 -11 -11 -11 -10 -10 -10 -10 -9 -9 -9 -9 -9 -9 -9 -9 -10 -10 -10
-10 -10 -9 -9 -10 -9 -9 -9 -9 -8 -8 -8 -8 -8 -8 -8 -8 -8 -8 -8 -9 -9 -9 -9 -10 -10 -10 -10 -10 -10 -10 -11 -10 -10 -10 -10 -10 -9 -9 -9 -9 -9 -10 -10 -10 -10 -10 -10 -10
-10 -10 -9 -9 -10 -9 -9 -9 -9 -8 -8 -8 -8 -8 -8 -8 -8 -8 -8 -7 -9 -9 -9 -9 -10 -10 -10 -10 -10 -10 -10 -10 -10 -10 -10 -10 -10 -10 -9 -9 -9 -10 -10 -10 -10 -10 -10 -10 -10
-10 -10 -9 -9 -10 -9 -9 -9 -9 -9 -8 -8 -8 -8 -8 -8 -8 -8 -8 -7 -8 -8 -9 -9 -9 -9 -10 -10 -10 -10 -10 -10 -10 -10 -10 -9 -9 -9 -9 -9 -9 -10 -10 -10 -10 -10 -10 -10 -10
-10 -10 -9 -10 -9 -9 -9 -9 -9 -8 -8 -9 -8 -8 -8 -8 -8 -8 -8 -7 -8 -8 -9 -9 -9 -9 -10 -9 -9 -9 -9 -9 -10 -10 -9 -9 -9 -9 -9 -9 -9 -10 -10 -10 -10 -10 -10 -10 -11
-10 -10 -10 -10 -9 -9 -10 -9 -9 -8 -9 -9 -9 -9 -8 -8 -8 -8 -8 -8 -8 -8 -9 -9 -9 -8 -9 -9 -9 -9 -9 -9 -9 -9 -9 -9 -9 -9 -9 -10 -10 -10 -10 -10 -10 -11 -11 -11 -11
-10 -10 -10 -10 -10 -10 -10 -9 -9 -9 -9 -8 -9 -9 -9 -8 -8 -8 -8 -8 -8 -8 -8 -8 -8 -8 -8 -9 -9 -9 -9 -9 -9 -9 -9 -9 -9 -9 -10 -10 -10 -10 -10 -10 -11 -11 -11 -11 -11
-11 -11 -10 -10 -10 -10 -10 -9 -9 -9 -9 -9 -9 -9 -9 -8 -8 -8 -8 -8 -8 -8 -8 -8 -8 -8 -8 -8 -9 -9 -9 -9 -9 -9 -9 -9 -9 -10 -10 -10 -10 -10 -11 -11 -11 -11 -11 -11 -11
-11 -11 -10 -10 -10 -10 -10 -10 -9 -9 -9 -9 -9 -9 -9 -9 -8 -8 -9 -9 -9 -8 -8 -8 -8 -8 -9 -9 -9 -9 -9 -9 -9 -9 -9 -9 -10 -10 -10 -10 -10 -10 -11 -11 -11 -11 -11 -11 -11
-11 -11 -11 -10 -10 -10 -10 -10 -10 -10 -9 -9 -10 -9 -9 -9 -9 -8 -8 -8 -8 -9 -9 -9 -9 -8 -8 -9 -10 -9 -9 -9 -9 -10 -10 -10 -10 -10 -10 -10 -10 -10 -11 -11 -11 -11 -11 -11 -11
-11 -11 -11 -10 -10 -10 -10 -10 -10 -10 -9 -9 -9 -9 -9 -9 -9 -9 -8 -8 -8 -8 -8 -9 -9 -9 -8 -9 -10 -10 -10 -10 -10 -10 -10 -10 -10 -10 -10 -10 -10 -11 -11 -11 -11 -11 -11 -11 -11
-11 -11 -10 -10 -11 -11 -11 -10 -10 -10 -9 -10 -9 -9 -9 -9 -9 -9 -9 -9 -8 -9 -8 -9 -9 -9 -9 -9 -9 -10 -10 -10 -10 -10 -10 -10 -10 -10 -10 -11 -11 -11 -11 -11 -11 -11 -11 -11 -11
-11 -10 -11 -11 -10 -11 -10 -11 -11 -10 -10 -10 -9 -9 -9 -9 -10 -9 -9 -9 -9 -9 -9 -8 -9 -9 -9 -9 -10 -10 -10 -10 -10 -10 -10 -10 -10 -11 -11 -11 -11 -11 -11 -11 -11 -11 -11 -11 -11
-10 -10 -10 -11 -10 -11 -12 -11 -11 -11 -10 -10 -10 -10 -9 -9 -10 -10 -10 -10 -10 -9 -9 -9 -9 -9 -9 -10 -10 -10 -10 -11 -11 -10 -10 -10 -11 -11 -11 -11 -11 -11 -11 -11 -11 -11 -11 -11 -11
-11 -11 -11 -11 -11 -10 -11 -11 -11 -10 -10 -10 -10 -10 -9 -9 -10 -10 -10 -10 -10 -10 -10 -10 -10 -10 -10 -10 -10 -11 -11 -10 -10 -10 -11 -11 -11 -11 -11 -11 -11 -11 -11 -11 -11 -11 -11 -11 -11
-12 -11 -11 -11 -10 -10 -11 -10 -11 -10 -10 -10 -10 -10 -10 -10 -10 -10 -10 -10 -10 -10 -10 -10 -10 -10 -10 -11 -11 -11 -10 -10 -10 -11 -11 -11 -11 -11 -11 -11 -11 -11 -11 -11 -11 -12 -11 -11 -11
-13 -12 -12 -11 -10 -10 -10 -10 -10 -11 -11 -10 -9 -10 -10 -10 -10 -10 -10 -10 -10 -10 -10 -11 -11 -11 -11 -11 -11 -11 -10 -10 -11 -11 -11 -11 -11 -11 -11 -11 -11 -11 -11 -11 -11 -11 -11 -11 -11
-13 -13 -12 -11 -11 -11 -10 -9 -10 -10 -10 -10 -10 -10 -10 -10 -10 -10 -11 -10 -10 -10 -10 -11 -11 -11 -11 -11 -11 -11 -11 -11 -11 -11 -11 -11 -11 -11 -11 -11 -11 -11 -11 -11 -11 -11 -11 -12 -11
-13 -13 -12 -12 -12 -11 -10 -9 -9 -10 -10 -10 -11 -11 -11 -10 -10 -10 -10 -11 -11 -11 -11 -11 -11 -11 -10 -10 -11 -11 -11 -11 -11 -11 -11 -11 -11 -11 -11 -11 -11 -11 -11 -11 -11 -11 -11 -12 -12
-13 -13 -13 -13 -12 -11 -10 -10 -8 -9 -10 -12 -11 -11 -11 -11 -11 -11 -11 -11 -11 -11 -11 -11 -11 -11 -11 -11 -11 -11 -11 -11 -11 -11 -11 -11 -11 -11 -11 -11 -11 -11 -11 -11 -12 -11 -12 -12 -12
-14 -13 -13 -13 -13 -10 -11 -10 -8 -8 -10 -11 -11 -11 -11 -10 -12 -12 -11 -11 -11 -11 -11 -11 -11 -11 -11 -11 -11 -11 -11 -11 -11 -11 -11 -11 -11 -11 -11 -11 -11 -11 -12 -12 -12 -12 -12 -12 -12
-13 -14 -13 -13 -12 -11 -11 -9 -9 -10 -11 -11 -11 -12 -11 -11 -11 -11 -11 -12 -11 -11 -11 -11 -11 -11 -11 -11 -11 -11 -11 -11 -11 -11 -11 -11 -11 -11 -12 -12 -12 -12 -12 -12 -12 -12 -12 -12 -12
-14 -14 -13 -13 -12 -12 -11 -10 -10 -10 -11 -11 -11 -11 -11 -11 -12 -11 -11 -11 -11 -11 -11 -11 -11 -11 -11 -11 -11 -11 -11 -11 -11 -11 -11 -11 -11 -11 -12 -12 -12 -12 -12 -12 -12 -12 -12 -12 -12
-14 -14 -14 -14 -13 -12 -11 -11 -10 -11 -11 -11 -11 -11 -11 -11 -11 -10 -10 -10 -10 -10 -10 -11 -11 -11 -11 -11 -11 -11 -11 -11 -11 -12 -11 -11 -12 -12 -12 -12 -12 -12 -12 -12 -12 -12 -13 -13 -13
-14 -13 -14 -14 -13 -13 -12 -12 -11 -11 -12 -11 -11 -11 -11 -11 -11 -11 -10 -10 -10 -10 -10 -11 -11 -11 -11 -11 -12 -11 -11 -11 -12 -11 -11 -12 -12 -12 -12 -12 -12 -12 -12 -12 -13 -13 -13 -13 -13
-15 -14 -15 -14 -12 -12 -12 -11 -11 -11 -11 -11 -11 -11 -11 -11 -11 -11 -10 -10 -10 -10 -10 -11 -11 -11 -11 -12 -12 -12 -12 -12 -12 -12 -12 -12 -12 -12 -12 -12 -12 -12 -13 -13 -13 -13 -13 -13 -14
Height
5853 5856 5859 5861 5866 5866 5865 5866 5866 5866 5866 5865 5862 5861 5860 5859 5858 5860 5857 5856 5855 5856 5856 5857 5859 5860 5862 5863 5864 5866 5867 5869 5870 5870 5871 5873 5875 5875 5877 5876 5876 5876 5876 5876 5876 5876 5876 5875 5874
5849 5854 5857 5859 5862 5863 5863 5864 5866 5865 5865 5864 5862 5861 5860 5859 5858 5858 5858 5857 5856 5855 5855 5856 5859 5861 5862 5863 5865 5866 5868 5870 5870 5872 5873 5874 5876 5877 5877 5877 5876 5877 5877 5878 5878 5878 5877 5876 5876
5848 5851 5854 5856 5859 5861 5861 5864 5863 5864 5864 5863 5862 5860 5860 5860 5859 5859 5858 5857 5857 5856 5855 5857 5859 5861 5862 5863 5864 5866 5868 5870 5872 5873 5875 5876 5877 5878 5878 5878 5878 5879 5879 5879 5879 5878 5878 5878 5877
5844 5848 5852 5854 5857 5858 5860 5861 5861 5863 5863 5862 5861 5860 5860 5860 5860 5860 5859 5858 5858 5857 5857 5857 5859 5860 5861 5863 5865 5866 5868 5870 5873 5875 5877 5877 5877 5878 5879 5879 5880 5880 5880 5880 5880 5880 5879 5879 5878
5842 5845 5849 5852 5855 5857 5858 5859 5861 5862 5861 5861 5860 5860 5861 5861 5860 5860 5859 5859 5859 5857 5857 5858 5859 5861 5862 5863 5865 5867 5869 5871 5874 5876 5878 5878 5878 5879 5879 5880 5881 5881 5880 5880 5881 5881 5880 5879 5879
5839 5844 5847 5850 5852 5855 5855 5857 5859 5860 5859 5859 5859 5859 5861 5860 5861 5861 5860 5859 5859 5858 5858 5858 5861 5863 5864 5865 5866 5869 5871 5873 5875 5877 5878 5878 5879 5880 5881 5881 5882 5882 5882 5882 5882 5882 5881 5881 5881
5837 5841 5844 5846 5849 5852 5853 5854 5856 5857 5857 5858 5858 5859 5861 5861 5861 5861 5860 5860 5859 5859 5859 5860 5862 5864 5865 5867 5869 5871 5874 5876 5876 5877 5878 5879 5880 5881 5882 5882 5883 5884 5884 5883 5883 5882 5882 5882 5881
5834 5837 5841 5844 5845 5847 5850 5851 5853 5854 5855 5856 5857 5858 5860 5861 5861 5860 5860 5861 5861 5860 5860 5862 5864 5865 5867 5869 5871 5873 5875 5876 5877 5878 5879 5880 5880 5881 5882 5883 5883 5883 5883 5883 5882 5882 5882 5882 5881
5828 5833 5838 5839 5841 5841 5844 5847 5850 5851 5853 5854 5856 5857 5859 5860 5861 5861 5861 5862 5862 5862 5862 5863 5865 5867 5869 5870 5872 5874 5876 5877 5878 5878 5879 5881 5882 5882 5882 5883 5883 5883 5883 5882 5882 5882 5882 5881 5880
5823 5829 5832 5834 5836 5840 5842 5845 5848 5850 5851 5853 5855 5856 5858 5860 5862 5862 5862 5863 5863 5864 5864 5864 5866 5868 5869 5870 5872 5874 5875 5877 5878 5879 5880 5880 5881 5882 5883 5884 5883 5883 5882 5882 5882 5882 5881 5880 5879
5820 5826 5827 5831 5832 5837 5839 5842 5845 5847 5847 5850 5853 5854 5856 5858 5861 5862 5863 5863 5863 5863 5865 5865 5866 5868 5868 5870 5872 5874 5876 5877 5878 5880 5880 5881 5881 5881 5882 5882 5882 5882 5882 5881 5881 5881 5880 5879 5878
5815 5818 5822 5826 5829 5833 5836 5840 5841 5842 5846 5848 5850 5852 5853 5856 5859 5861 5862 5862 5863 5864 5864 5865 5866 5867 5867 5869 5871 5872 5875 5876 5878 5880 5881 5881 5882 5882 5883 5882 5882 5882 5881 5881 5880 5879 5879 5878 5876
5811 5814 5816 5819 5824 5827 5832 5836 5838 5839 5844 5846 5848 5850 5851 5854 5856 5858 5859 5861 5863 5864 5864 5865 5866 5866 5867 5867 5869 5872 5873 5876 5878 5879 5880 5881 5882 5882 5882 5882 5883 5882 5881 5880 5879 5878 5877 5875 5874
5808 5807 5811 5814 5818 5824 5828 5831 5834 5834 5839 5841 5843 5847 5849 5851 5853 5855 5858 5860 5862 5863 5864 5864 5865 5866 5867 5868 5869 5871 5873 5875 5877 5879 5880 5881 5882 5882 5882 5882 5882 5881 5880 5879 5877 5876 5874 5872 5871
5800 5804 5807 5810 5813 5818 5822 5826 5828 5829 5834 5837 5838 5842 5845 5847 5849 5851 5855 5858 5859 5861 5863 5864 5865 5865 5867 5868 5869 5870 5872 5874 5876 5878 5879 5881 5882 5882 5881 5881 5880 5880 5879 5878 5876 5873 5871 5870 5868
5795 5799 5800 5804 5808 5813 5815 5821 5823 5826 5830 5832 5835 5837 5841 5842 5844 5848 5850 5853 5855 5857 5859 5861 5864 5865 5866 5866 5868 5870 5871 5873 5875 5877 5877 5879 5880 5880 5880 5879 5878 5877 5875 5874 5872 5870 5868 5866 5865
5786 5791 5794 5799 5804 5806 5809 5817 5817 5822 5826 5827 5830 5833 5836 5839 5840 5843 5845 5847 5850 5852 5856 5858 5860 5862 5864 5866 5867 5868 5870 5872 5873 5874 5875 5875 5876 5876 5877 5876 5875 5874 5872 5870 5869 5867 5864 5862 5860
5781 5784 5788 5794 5801 5800 5803 5810 5812 5816 5819 5821 5825 5829 5832 5836 5836 5837 5840 5842 5846 5848 5851 5854 5857 5859 5861 5864 5865 5866 5868 5869 5870 5870 5872 5873 5873 5873 5873 5872 5871 5870 5868 5867 5865 5863 5860 5858 5855
5773 5777 5783 5791 5791 5794 5799 5802 5806 5810 5813 5815 5818 5822 5826 5831 5829 5833 5837 5841 5844 5846 5848 5850 5852 5854 5857 5859 5861 5863 5863 5866 5868 5869 5870 5871 5870 5869 5869 5869 5867 5865 5865 5863 5861 5858 5856 5852 5850
5764 5771 5778 5784 5783 5789 5792 5797 5801 5803 5808 5811 5814 5816 5822 5824 5825 5829 5834 5836 5840 5843 5845 5847 5848 5850 5852 5854 5856 5858 5859 5862 5864 5866 5867 5867 5866 5866 5865 5864 5862 5861 5859 5858 5856 5854 5851 5847 5844
5756 5763 5772 5776 5780 5781 5786 5791 5797 5801 5802 5805 5807 5811 5814 5817 5820 5826 5829 5834 5836 5839 5841 5843 5844 5845 5848 5850 5851 5853 5855 5858 5860 5860 5861 5861 5862 5862 5860 5859 5857 5856 5855 5852 5851 5849 5846 5842 5839
5749 5757 5766 5766 5775 5775 5780 5781 5790 5797 5797 5800 5804 5806 5810 5813 5816 5821 5824 5829 5834 5836 5836 5838 5840 5842 5843 5845 5848 5851 5851 5853 5854 5854 5856 5856 5857 5856 5855 5853 5852 5851 5849 5846 5844 5841 5839 5836 5832
5742 5751 5760 5760 5766 5768 5774 5773 5789 5791 5793 5799 5801 5802 5805 5808 5810 5815 5820 5824 5827 5828 5832 5833 5835 5838 5842 5844 5845 5847 5850 5850 5848 5849 5851 5851 5851 5850 5849 5848 5846 5844 5841 5839 5837 5834 5832 5829 5826
5735 5746 5751 5754 5758 5760 5769 5769 5779 5785 5793 5793 5794 5794 5796 5799 5805 5809 5814 5815 5817 5822 5826 5828 5830 5834 5836 5839 5841 5842 5842 5844 5844 5844 5843 5844 5844 5843 5841 5839 5838 5836 5834 5832 5830 5827 5824 5821 5818
5724 5734 5740 5744 5748 5751 5759 5759 5769 5780 5785 5787 5789 5790 5791 5792 5795 5800 5803 5807 5812 5815 5819 5821 5824 5827 5829 5831 5833 5834 5834 5834 5835 5835 5835 5835 5836 5836 5834 5832 5830 5829 5827 5824 5822 5819 5817 5814 5811
5720 5724 5732 5735 5741 5747 5750 5753 5757 5774 5779 5781 5783 5785 5787 5789 5791 5794 5796 5800 5803 5806 5810 5812 5816 5820 5820 5822 5825 5825 5826 5827 5827 5827 5826 5827 5828 5828 5826 5825 5823 5821 5819 5817 5815 5812 5809 5806 5802
5707 5714 5726 5731 5736 5739 5743 5754 5752 5767 5772 5775 5776 5779 5781 5782 5784 5787 5789 5792 5795 5797 5800 5803 5806 5808 5810 5814 5815 5816 5817 5817 5818 5818 5818 5818 5819 5818 5817 5816 5816 5813 5810 5807 5806 5803 5800 5796 5792
5700 5709 5717 5722 5727 5731 5737 5741 5745 5754 5764 5769 5771 5773 5774 5776 5778 5781 5783 5785 5787 5788 5790 5793 5797 5800 5802 5803 5805 5807 5807 5807 5808 5808 5809 5808 5810 5807 5807 5806 5805 5803 5800 5798 5794 5792 5788 5785 5781
5691 5698 5705 5712 5717 5722 5729 5734 5739 5745 5756 5761 5763 5765 5767 5769 5771 5772 5774 5777 5779 5779 5780 5783 5785 5788 5790 5791 5793 5794 5796 5797 5797 5797 5798 5798 5799 5797 5796 5795 5793 5791 5789 5786 5783 5780 5776 5773 5769
5682 5689 5697 5703 5711 5717 5722 5732 5736 5739 5745 5752 5753 5756 5757 5759 5761 5762 5763 5766 5768 5769 5770 5773 5775 5777 5779 5781 5781 5783 5784 5786 5786 5786 5785 5785 5786 5784 5784 5782 5781 5779 5776 5773 5771 5768 5764 5760 5756
Wind_Speed
31 30 27 24 24 22 21 19 20 18 18 15 13 15 13 8 4 5 6 6 5 6 6 6 9 6 7 8 12 11 11 11 11 12 9 6 5 7 6 7 7 7 8 9 10 11 11 12 12
31 31 29 26 22 20 23 20 19 19 17 13 11 13 9 2 3 5 5 4 2 3 6 7 8 7 8 11 12 12 10 11 10 10 9 6 5 5 7 6 7 7 10 11 11 11 12 12 13
30 29 30 27 24 20 24 19 18 18 16 10 10 11 6 1 2 4 5 2 1 4 10 9 8 9 8 8 15 16 12 9 9 8 6 6 3 4 5 7 9 11 11 11 11 12 12 13 13
31 28 27 27 25 22 20 20 18 17 15 9 10 10 6 2 1 3 3 1 4 10 10 9 10 12 12 12 15 17 11 11 9 7 4 3 3 4 7 10 11 10 10 10 12 12 11 12 13
32 28 27 26 26 20 21 20 19 16 14 10 9 10 6 4 1 3 3 2 4 10 12 13 15 14 13 11 9 14 14 11 10 6 5 4 4 6 10 10 9 9 10 11 11 10 11 11 12
34 29 27 25 24 23 21 22 20 17 13 11 10 10 8 6 4 4 6 7 8 11 15 16 15 13 13 12 13 15 12 12 9 7 5 4 5 8 10 8 8 9 9 9 9 9 10 12 13
34 29 28 27 26 23 23 24 23 18 14 12 11 10 10 10 6 6 9 12 12 15 17 16 15 14 12 12 12 12 10 7 5 6 5 4 7 8 7 7 9 9 8 7 8 9 10 10 10
33 30 29 26 29 28 24 25 24 19 15 14 11 10 12 13 10 8 12 15 15 17 17 15 13 11 10 10 8 7 6 6 6 6 5 7 9 7 7 9 8 6 6 7 7 7 8 8 8
33 33 30 29 30 30 28 28 27 21 17 14 13 11 13 15 12 12 14 17 16 16 15 15 12 10 10 9 7 6 5 5 6 7 8 9 7 8 8 6 5 5 5 5 5 6 7 7 8
35 34 32 31 30 27 28 27 26 21 18 15 14 11 12 16 15 15 17 18 17 13 13 14 13 12 11 10 9 7 6 6 8 10 11 10 10 8 5 4 4 4 2 3 4 5 6 7 7
35 34 36 31 29 28 29 28 24 23 22 17 14 12 13 18 19 18 20 19 17 17 15 15 14 14 12 11 8 7 7 9 11 12 11 12 10 8 7 6 4 2 0 2 3 4 5 6 8
36 34 38 33 31 31 30 28 27 25 23 18 17 15 14 16 20 20 22 21 20 18 17 15 14 16 16 14 11 10 10 13 14 13 13 11 9 7 5 4 3 2 2 3 5 6 7 8 9
39 34 37 37 32 33 32 30 26 26 23 19 19 18 16 16 19 23 22 23 23 22 21 19 17 18 19 17 14 14 15 16 15 15 15 12 10 7 5 3 3 4 4 5 8 9 10 11 12
37 36 40 39 33 30 33 30 27 28 26 24 23 21 18 17 16 22 24 23 22 23 24 23 22 20 19 18 16 16 17 17 16 17 15 11 9 7 6 6 6 6 7 8 10 12 13 14 15
42 40 40 33 33 34 33 32 31 33 29 27 26 24 22 19 19 20 23 25 24 23 20 20 22 20 19 18 17 18 19 18 17 17 14 13 10 9 8 8 8 8 9 11 13 15 17 17 18
43 43 44 38 35 36 35 34 36 33 31 31 29 26 25 24 22 20 22 24 26 24 26 21 21 21 20 20 19 19 19 18 19 18 16 14 12 11 11 11 11 12 13 15 17 18 20 21 21
47 47 46 41 41 37 39 34 36 35 35 33 33 30 29 27 23 23 24 24 24 27 25 24 21 21 21 20 20 19 19 19 21 20 18 17 15 14 14 14 15 16 17 18 20 22 24 24 25
52 49 47 42 36 39 32 34 35 36 36 37 35 34 31 29 28 28 27 24 25 25 25 24 21 20 20 21 21 20 21 23 25 23 21 19 18 17 17 17 19 20 21 21 23 24 26 28 29
54 52 46 39 41 40 38 38 33 37 37 35 40 38 36 32 35 31 27 25 25 25 25 24 24 24 22 22 23 23 24 25 25 24 22 20 21 21 20 21 23 25 25 25 26 27 29 31 32
55 54 50 41 46 39 38 41 32 37 35 30 37 42 39 38 38 32 30 27 25 26 25 26 25 25 25 25 25 26 27 26 28 26 24 25 26 24 23 25 28 28 27 28 30 30 31 33 33
57 53 45 48 44 42 42 41 34 28 33 34 33 42 42 41 39 35 32 29 27 25 27 28 28 28 28 28 29 29 28 29 30 30 29 30 27 26 27 29 30 30 31 31 33 33 33 35 36
59 56 47 49 44 46 46 47 40 29 32 36 32 35 44 41 41 37 34 32 28 28 30 30 32 30 29 30 29 29 30 30 32 33 32 32 30 30 31 32 32 33 34 34 35 35 36 37 39
59 54 47 48 44 48 46 51 39 35 36 29 27 34 40 44 43 41 36 33 33 35 34 34 33 32 31 31 30 30 31 32 35 36 36 36 34 33 35 35 35 36 37 37 37 39 39 41 42
57 52 49 48 46 50 46 49 45 40 33 31 31 27 37 45 43 42 40 40 39 38 37 36 35 34 33 34 34 33 34 35 37 38 38 39 38 37 38 39 38 38 39 39 40 42 42 43 45
60 56 52 50 50 54 49 53 49 38 31 32 34 24 25 33 42 45 44 43 41 40 40 39 39 38 38 39 38 37 39 39 40 43 42 42 41 42 42 42 42 42 43 42 43 44 45 46 48
59 58 55 56 51 50 50 53 53 37 29 27 39 25 27 29 25 29 36 49 43 45 44 45 43 42 41 44 43 43 43 44 44 46 47 45 44 44 46 45 45 45 46 45 45 47 48 49 49
63 61 55 52 51 52 53 48 52 37 31 33 35 35 31 30 32 33 32 32 35 49 46 47 48 47 47 43 45 47 46 46 47 48 50 49 48 47 48 48 48 49 49 50 49 49 51 52 53
63 60 56 55 54 52 50 50 52 43 35 33 32 34 35 35 35 36 38 38 37 38 40 50 49 50 50 47 49 49 50 49 50 51 52 53 50 51 51 50 51 53 52 52 53 52 53 55 56
62 59 59 57 55 52 49 49 47 40 29 31 32 34 34 35 36 38 39 37 36 39 42 46 52 53 52 54 53 53 54 52 53 55 55 56 56 55 54 53 53 54 56 56 56 56 56 57 58
64 62 59 55 53 49 50 45 43 41 39 35 35 37 39 41 40 41 41 40 40 40 35 45 51 56 57 60 58 56 56 57 56 59 58 59 58 60 58 58 57 57 58 59 58 59 59 59 60
Wind_Direction
223 231 228 229 230 235 242 243 256 265 280 295 313 309 312 312 342 352 333 302 272 262 233 212 217 193 157 155 155 153 162 166 160 163 155 147 115 82 85 84 71 59 63 78 86 80 72 60 52
225 231 231 229 231 236 245 245 252 268 279 291 304 306 303 309 345 349 327 314 295 262 205 193 188 176 161 155 158 157 168 170 174 166 157 136 90 74 82 72 74 79 88 86 77 64 54 55 54
221 226 229 228 232 235 243 247 252 265 276 288 294 296 278 289 351 342 312 316 74 142 156 160 174 172 179 182 176 173 166 169 172 172 159 120 87 82 81 84 89 95 89 76 64 61 60 54 48
218 220 227 226 230 236 240 242 254 264 269 280 287 284 247 226 292 326 297 268 127 154 143 152 161 163 156 150 171 182 174 170 167 165 140 134 122 81 79 95 102 94 79 69 69 66 58 52 50
220 220 223 226 232 237 236 244 249 261 265 270 279 275 232 199 240 281 211 167 148 152 143 145 151 150 152 149 162 175 163 167 161 160 166 136 91 95 103 108 102 85 78 77 69 60 58 59 51
225 221 222 227 234 235 235 242 246 254 256 261 266 268 232 201 226 253 189 166 164 151 145 145 147 152 153 150 148 160 168 167 169 165 149 131 116 111 115 106 87 85 84 72 65 62 54 43 35
223 224 223 227 236 234 234 238 241 248 247 247 256 256 231 208 219 228 187 171 171 158 153 152 153 155 150 140 146 160 164 168 161 144 136 131 122 118 103 95 90 82 76 77 67 53 41 32 21
218 220 223 226 234 232 235 234 236 241 242 242 247 247 230 212 210 208 185 174 168 161 157 157 160 154 148 141 152 156 162 143 138 146 150 135 131 123 116 108 104 107 96 77 58 40 26 16 8
227 222 226 225 228 236 232 226 231 234 234 238 244 243 227 216 211 197 181 172 167 163 164 163 166 165 162 161 167 167 159 168 168 170 152 144 144 139 131 134 131 115 88 66 41 20 8 1 358
223 224 226 225 227 238 230 224 232 234 233 234 242 244 232 219 214 198 182 182 186 185 181 178 177 171 174 179 187 195 194 188 178 167 163 161 159 147 158 159 136 116 86 31 14 1 351 347 347
230 233 228 224 225 229 221 222 228 232 230 227 235 236 234 221 216 206 194 195 196 193 193 187 185 180 188 194 198 204 204 183 179 177 176 174 168 174 177 166 156 148 332 336 331 327 322 327 333
227 231 228 226 222 224 220 226 225 228 235 227 230 230 230 224 218 213 209 202 200 208 204 205 209 208 196 197 201 202 197 188 186 186 182 180 191 195 185 178 185 208 257 295 304 301 305 311 315
229 230 231 222 219 224 224 224 225 227 232 233 236 235 229 227 222 220 218 218 219 215 216 226 230 221 215 209 206 204 197 196 194 193 187 195 203 199 202 218 239 253 267 283 285 291 297 301 308
224 229 234 222 219 224 229 224 223 227 229 228 231 236 233 229 223 227 228 223 227 232 230 227 230 225 221 223 217 210 204 201 203 199 200 206 211 216 223 231 241 254 263 270 280 287 291 300 308
227 230 237 224 218 220 227 225 224 226 225 229 229 230 232 226 229 225 231 227 227 234 234 235 229 223 228 229 225 217 211 209 207 203 205 213 224 239 245 253 260 267 275 278 284 290 293 298 303
229 229 231 234 237 228 229 222 230 229 228 227 231 229 232 227 228 230 230 230 227 230 234 233 242 242 234 230 229 224 217 218 209 209 214 222 235 249 259 263 270 277 281 283 284 286 292 298 300
227 228 231 232 234 241 230 227 230 234 230 229 232 233 233 234 228 230 229 230 229 227 229 234 236 243 248 243 235 227 225 225 215 217 223 230 239 253 264 273 278 279 282 283 287 291 294 297 299
226 230 231 232 232 238 238 237 234 234 237 230 231 233 234 237 236 232 232 228 233 230 230 232 235 242 246 249 242 237 236 228 220 222 229 237 249 261 269 276 280 281 281 284 287 291 294 297 298
229 231 235 234 239 237 240 242 239 235 232 235 228 230 232 234 237 238 237 238 241 241 235 231 233 233 235 239 244 240 237 232 228 233 240 250 258 264 274 282 281 281 284 286 289 291 293 296 298
231 232 233 234 235 235 239 239 240 232 229 239 237 229 231 233 239 239 242 240 237 241 243 241 235 237 235 234 236 239 238 233 232 241 247 252 258 269 278 281 281 284 286 288 289 292 293 293 296
227 230 227 234 233 238 237 236 237 243 236 237 237 234 229 235 238 240 244 246 242 241 244 245 241 238 238 238 235 234 236 235 237 241 246 253 262 272 278 280 281 284 288 289 292 292 292 295 296
228 227 227 232 230 236 238 238 236 238 243 238 241 242 239 236 241 240 242 248 252 250 247 248 249 244 241 241 242 242 241 241 242 244 250 257 264 270 276 279 281 284 286 289 290 292 293 295 296
226 226 224 228 228 234 236 246 228 238 243 252 260 251 243 243 240 243 241 241 245 246 247 248 250 254 255 254 250 251 254 253 249 250 254 258 263 270 277 278 278 280 284 288 291 292 293 295 296
225 224 225 228 230 233 235 242 233 232 239 253 258 248 246 242 242 244 245 242 240 245 250 252 254 257 258 259 259 258 259 260 260 255 254 259 264 269 271 272 274 278 282 285 288 290 291 293 295
221 220 224 227 228 235 233 238 238 234 242 249 255 258 256 243 233 238 242 245 245 246 249 250 253 254 258 259 259 259 258 256 258 259 257 257 262 269 270 272 274 277 280 284 286 288 291 293 294
222 225 224 227 229 234 239 239 243 241 243 243 243 257 260 261 251 245 249 245 250 249 248 249 250 253 254 257 259 260 259 260 259 261 261 261 264 268 271 272 275 278 281 283 286 289 291 292 294
221 226 227 230 231 233 240 242 249 241 241 240 245 255 251 251 253 251 258 263 258 248 249 252 252 251 252 257 259 260 259 259 259 260 262 263 266 268 268 271 275 278 281 285 287 288 290 292 293
221 225 226 229 231 232 236 242 246 250 243 242 244 245 252 256 262 265 265 268 271 270 264 251 253 254 255 256 261 261 260 259 260 261 264 266 265 268 269 271 273 276 279 282 285 286 288 290 291
223 223 224 224 228 232 235 240 245 250 241 245 244 248 253 255 262 263 266 269 270 268 263 257 249 250 252 256 256 257 259 259 259 261 263 267 269 269 270 270 272 274 278 280 282 285 286 288 289
222 220 230 231 234 235 240 245 253 258 252 239 243 241 243 245 248 253 263 266 268 272 268 256 252 249 250 252 257 257 258 259 262 263 264 265 267 269 271 271 272 273 275 278 281 284 285 287 288